Погода в Малой Хмелевой

Россия / Тульская область     53°12′20″N   38°00′35″E
темп.,
°C
ветер,
м/с
пор.,
м/с
влажн.,
%
обл.,
%
осадки,
мм/ч
давл.,
гПа
погр.,
м
28 июля, ср
ср2800:00+18ююз227992 0.3 101911
03:00+17ююз2278100 0.3 101818
06:00+19ююз2375100 0.0 101749
09:00+24ю3455100 0.0 1016388
12:00+26зюз4545100 0.0 10161031
15:00+24юз2350100 0.0 1015111
18:00+21юз3560100 0.0 1013121
21:00+18ююв3577100 0.3 1012109
29 июля, чт
чт2900:00+18ю388694 0.1 1011203
03:00+16юз36895 0.1 1010109
06:00+17зюз39915 0.0 1009228
09:00+24зсз58655 0.0 1009794
12:00+27з675058 0.2 10091623
15:00+29з684058 0.4 10082687
18:00+25з4854100 0.0 1007263
21:00+23з356192 0.0 1008106
30 июля, пт
пт3000:00+20зюз337382 0.0 100828
03:00+19ююз237483 0.0 100726
06:00+21юз2466100 0.0 1006105
09:00+23зюз347080 1.3 1006461
12:00+24зюз456565 0.1 1006828
15:00+25з576982 2.9 10061007
18:00+26зсз576020 0.4 10061391
21:00+21зсз347617 0.4 100758
31 июля, сб
сб3100:00+20зсз36692 0.0 1008162
03:00+18з357370 0.0 100881
06:00+17з35754 0.0 1009107
09:00+24зюз565489 0.0 1009591
12:00+27зюз683811 0.0 10092383
15:00+28з793538 0.0 10092494
18:00+27з68415 0.0 10091915
21:00+21з33615 0.0 100933
1 августа, вс
вс100:00+19з226718 0.0 101111
03:00+18ю33705 0.0 101033
06:00+19ю39695 0.0 1010195
09:00+26ююз611465 0.0 1009696
12:00+31ююз912346 0.0 10082471
15:00+31зюз81033100 0.0 10072567
18:00+28зюз5945100 0.0 10081481
21:00+22сз336645 0.0 100943